User: anonymous   Login
Location: *
(32.8667°N, 13.1833°E)
Time: 22:09:05
(UTC+00:00)
Language:

Cosmos 1825 - Orbit

View from above orbital plane
View from above orbital plane
View from above satellite
View from above satellite

Ground track
Ground track

The orbit data is extracted from the following two-line orbital elements,

1 17566U 87024A   19257.90050185 +.00000515 +00000-0 +22576-4 0  9995
2 17566 082.5068 196.7385 0002394 220.1110 139.9949 15.19759818778011
Epoch (UTC): 14 September 2019 21:36:43
Eccentricity: 0.0002394
inclination: 82.5068°
perigee height: 505 km
apogee height: 508 km
right ascension of ascending node: 196.7385°
argument of perigee: 220.1110°
revolutions per day: 15.19759818
mean anomaly at epoch: 139.9949°
orbit number at epoch: 77801

The dashed part of the orbit path shows where the satellite is in the earth's shadow,  

DLR